Year,Month,Day,Hour,Minute,Value (Times are PST for temperature in C)
2008,11,20,00,00,8.50
2008,11,20,00,01,8.50
2008,11,20,00,02,8.50
2008,11,20,00,03,8.50
2008,11,20,00,04,8.50
2008,11,20,00,05,8.40
2008,11,20,00,06,8.40
2008,11,20,00,07,8.40
2008,11,20,00,08,8.30
2008,11,20,00,09,8.30
2008,11,20,00,10,8.20
2008,11,20,00,11,8.20
2008,11,20,00,12,8.20
2008,11,20,00,13,8.20
2008,11,20,00,14,8.20
2008,11,20,08,02,9.60
2008,11,20,08,03,9.60
2008,11,20,08,04,9.60
2008,11,20,08,05,9.60
2008,11,20,08,06,9.60
2008,11,20,08,07,9.70
2008,11,20,08,08,9.60
2008,11,20,08,09,9.60
2008,11,20,08,10,9.60
2008,11,20,08,11,9.60
2008,11,20,08,12,9.50
2008,11,20,08,13,9.50
2008,11,20,08,14,9.50
2008,11,20,08,15,9.50
2008,11,20,08,16,9.60
2008,11,20,08,17,9.60
2008,11,20,08,18,9.60
2008,11,20,08,19,9.60
2008,11,20,08,20,9.60
2008,11,20,08,21,9.60
2008,11,20,08,22,9.60
2008,11,20,08,23,9.60
2008,11,20,08,24,9.70
2008,11,20,08,25,9.70
2008,11,20,08,26,9.70
2008,11,20,08,27,9.70
2008,11,20,08,28,9.80
2008,11,20,08,29,9.80
2008,11,20,08,30,9.80
2008,11,20,08,31,9.70
2008,11,20,08,32,9.70
2008,11,20,08,33,9.70
2008,11,20,08,34,9.70
2008,11,20,08,35,9.70
2008,11,20,08,36,9.60
2008,11,20,08,37,9.50
2008,11,20,08,38,9.40
2008,11,20,08,39,9.30
2008,11,20,08,40,9.30
2008,11,20,08,41,9.10
2008,11,20,08,42,9.00
2008,11,20,08,43,8.90
2008,11,20,08,44,8.80
2008,11,20,08,45,8.60
2008,11,20,08,46,8.50
2008,11,20,08,47,8.50
2008,11,20,08,48,8.40
2008,11,20,08,49,8.20
2008,11,20,08,50,8.20
2008,11,20,08,51,8.20
2008,11,20,08,52,8.20
2008,11,20,08,53,8.20
2008,11,20,08,54,8.20
2008,11,20,08,55,8.20
2008,11,20,08,56,8.20
2008,11,20,08,57,8.10
2008,11,20,08,58,8.10
2008,11,20,08,59,8.10
2008,11,20,09,00,8.10
2008,11,20,09,01,8.00
2008,11,20,09,02,8.00
2008,11,20,09,03,8.00
2008,11,20,09,04,8.00
2008,11,20,09,05,7.90
2008,11,20,09,06,7.90
2008,11,20,09,07,7.90
2008,11,20,09,08,7.90
2008,11,20,09,09,7.90
2008,11,20,09,10,7.80
2008,11,20,09,11,7.80
2008,11,20,09,12,7.80
2008,11,20,09,13,7.80
2008,11,20,09,14,7.80
2008,11,20,09,15,7.80
2008,11,20,09,16,7.80
2008,11,20,09,17,7.80
2008,11,20,09,18,7.80
2008,11,20,09,19,7.80
2008,11,20,09,20,7.80
2008,11,20,09,21,7.80
2008,11,20,09,22,7.80
2008,11,20,09,23,7.80
2008,11,20,09,24,7.80
2008,11,20,09,25,7.80
2008,11,20,09,26,7.80
2008,11,20,09,27,7.90
2008,11,20,09,28,7.90
2008,11,20,09,29,7.90
2008,11,20,09,30,7.90
2008,11,20,09,31,8.00
2008,11,20,09,32,8.00
2008,11,20,09,33,8.00
2008,11,20,09,34,8.00
2008,11,20,09,35,8.00
2008,11,20,09,36,8.10
2008,11,20,09,37,8.10
2008,11,20,09,38,8.20
2008,11,20,09,39,8.20
2008,11,20,09,40,8.20
2008,11,20,09,41,8.20
2008,11,20,09,42,8.30
2008,11,20,09,43,8.30
2008,11,20,09,44,8.40
2008,11,20,09,45,8.40
2008,11,20,09,46,8.40
2008,11,20,09,47,8.50
2008,11,20,09,48,8.50
2008,11,20,09,49,8.50
2008,11,20,09,50,8.60
2008,11,20,09,51,8.60
2008,11,20,09,52,8.70
2008,11,20,09,53,8.70
2008,11,20,09,54,8.70
2008,11,20,09,55,8.70
2008,11,20,09,56,8.70
2008,11,20,09,57,8.70
2008,11,20,09,58,8.70
2008,11,20,09,59,8.70
2008,11,20,10,00,8.70
2008,11,20,10,01,8.70
2008,11,20,10,02,8.60
2008,11,20,10,03,8.60
2008,11,20,10,04,8.60
2008,11,20,10,05,8.60
2008,11,20,10,06,8.60
2008,11,20,10,07,8.60
2008,11,20,10,08,8.60
2008,11,20,10,09,8.60
2008,11,20,10,10,8.60
2008,11,20,10,11,8.60
2008,11,20,10,12,8.60
2008,11,20,10,13,8.60
2008,11,20,10,14,8.60
2008,11,20,10,15,8.70
2008,11,20,10,16,8.70
2008,11,20,10,17,8.70
2008,11,20,10,18,8.70
2008,11,20,10,19,8.70
2008,11,20,10,20,8.70
2008,11,20,10,21,8.70
2008,11,20,10,22,8.70
2008,11,20,10,23,8.70
2008,11,20,10,24,8.70
2008,11,20,10,25,8.70
2008,11,20,10,26,8.70
2008,11,20,10,27,8.70
2008,11,20,10,28,8.70
2008,11,20,10,29,8.70
2008,11,20,10,30,8.70
2008,11,20,10,31,8.70
2008,11,20,10,32,8.70
2008,11,20,10,33,8.70
2008,11,20,10,34,8.70
2008,11,20,10,35,8.70
2008,11,20,10,36,8.70
2008,11,20,10,37,8.70
2008,11,20,10,38,8.70
2008,11,20,10,39,8.70
2008,11,20,10,40,8.70
2008,11,20,10,41,8.70
2008,11,20,10,42,8.80
2008,11,20,10,43,8.80
2008,11,20,10,44,8.90
2008,11,20,10,45,8.90
2008,11,20,10,46,8.90
2008,11,20,10,47,9.00
2008,11,20,10,48,9.00
2008,11,20,10,49,9.00
2008,11,20,10,50,9.10
2008,11,20,10,51,9.10
2008,11,20,10,52,9.10
2008,11,20,10,53,9.20
2008,11,20,10,54,9.20
2008,11,20,10,55,9.20
2008,11,20,10,56,9.20
2008,11,20,10,57,9.20
2008,11,20,10,58,9.30
2008,11,20,10,59,9.30
2008,11,20,11,00,9.30
2008,11,20,11,01,9.40
2008,11,20,11,02,9.40
2008,11,20,11,03,9.40
2008,11,20,11,04,9.40
2008,11,20,11,05,9.40
2008,11,20,11,06,9.40
2008,11,20,11,07,9.40
2008,11,20,11,08,9.40
2008,11,20,11,09,9.40
2008,11,20,11,10,9.40
2008,11,20,11,11,9.40
2008,11,20,11,12,9.40
2008,11,20,11,13,9.40
2008,11,20,11,14,9.40
2008,11,20,11,15,9.40
2008,11,20,11,16,9.40
2008,11,20,11,17,9.50
2008,11,20,11,18,9.50
2008,11,20,11,19,9.50
2008,11,20,11,20,9.50
2008,11,20,11,21,9.50
2008,11,20,11,22,9.50
2008,11,20,11,23,9.50
2008,11,20,11,24,9.50
2008,11,20,11,25,9.50
2008,11,20,11,26,9.60
2008,11,20,11,27,9.60
2008,11,20,11,28,9.60
2008,11,20,11,29,9.60
2008,11,20,11,30,9.60
2008,11,20,11,31,9.60
2008,11,20,11,32,9.60
2008,11,20,11,33,9.60
2008,11,20,11,34,9.60
2008,11,20,11,35,9.60
2008,11,20,11,36,9.60
2008,11,20,11,37,9.60
2008,11,20,11,38,9.60
2008,11,20,11,39,9.60
2008,11,20,11,40,9.60
2008,11,20,11,41,9.60
2008,11,20,11,42,9.60
2008,11,20,11,43,9.60
2008,11,20,11,44,9.60
2008,11,20,11,45,9.60
2008,11,20,11,46,9.60
2008,11,20,11,47,9.60
2008,11,20,11,48,9.60
2008,11,20,11,49,9.60
2008,11,20,11,50,9.60
2008,11,20,11,51,9.60
2008,11,20,11,52,9.60
2008,11,20,11,53,9.70
2008,11,20,11,54,9.70
2008,11,20,11,55,9.70
2008,11,20,11,56,9.70
2008,11,20,11,57,9.70
2008,11,20,11,58,9.70
2008,11,20,11,59,9.70
2008,11,20,12,00,9.70
2008,11,20,12,01,9.70
2008,11,20,12,02,9.70
2008,11,20,12,03,9.70
2008,11,20,12,04,9.70
2008,11,20,12,05,9.70
2008,11,20,12,06,9.70
2008,11,20,12,07,9.70
2008,11,20,12,08,9.70
2008,11,20,12,09,9.70
2008,11,20,12,10,9.80
2008,11,20,12,11,9.80
2008,11,20,12,12,9.80
2008,11,20,12,13,9.80
2008,11,20,12,14,9.80
2008,11,20,12,15,9.80
2008,11,20,12,16,9.80
2008,11,20,12,17,9.80
2008,11,20,12,18,9.80
2008,11,20,12,19,9.80
2008,11,20,12,20,9.80
2008,11,20,12,21,9.80
2008,11,20,12,22,9.80
2008,11,20,12,23,9.80
2008,11,20,12,24,9.80
2008,11,20,12,25,9.80
2008,11,20,12,26,9.80
2008,11,20,12,27,9.80
2008,11,20,12,28,9.70
2008,11,20,12,29,9.70
2008,11,20,12,30,9.70
2008,11,20,12,31,9.70
2008,11,20,12,32,9.80
2008,11,20,12,33,9.80
2008,11,20,12,34,9.80
2008,11,20,12,35,9.80
2008,11,20,12,36,9.80
2008,11,20,12,37,9.80
2008,11,20,12,38,9.80
2008,11,20,12,39,9.80
2008,11,20,12,40,9.90
2008,11,20,12,41,9.90
2008,11,20,12,42,9.90
2008,11,20,12,43,9.90
2008,11,20,12,44,9.90
2008,11,20,12,45,9.90
2008,11,20,12,46,9.90
2008,11,20,12,47,9.90
2008,11,20,12,48,9.90
2008,11,20,12,49,9.90
2008,11,20,12,50,9.90
2008,11,20,12,51,9.90
2008,11,20,12,52,9.90
2008,11,20,12,53,9.90
2008,11,20,12,54,9.90
2008,11,20,12,55,9.90
2008,11,20,12,56,9.90
2008,11,20,12,57,9.80
2008,11,20,12,58,9.80
2008,11,20,12,59,9.80
2008,11,20,13,00,9.80
2008,11,20,13,01,9.80
2008,11,20,13,02,9.80
2008,11,20,13,03,9.70
2008,11,20,13,04,9.70
2008,11,20,13,05,9.70
2008,11,20,13,06,9.70
2008,11,20,13,07,9.70
2008,11,20,13,08,9.70
2008,11,20,13,09,9.70
2008,11,20,13,10,9.70
2008,11,20,13,11,9.70
2008,11,20,13,12,9.70
2008,11,20,13,13,9.70
2008,11,20,13,14,9.70
2008,11,20,13,15,9.70
2008,11,20,13,16,9.70
2008,11,20,13,17,9.70
2008,11,20,13,18,9.70
2008,11,20,13,19,9.70
2008,11,20,13,20,9.60
2008,11,20,13,21,9.60
2008,11,20,13,22,9.60
2008,11,20,13,23,9.60
2008,11,20,13,24,9.60
2008,11,20,13,25,9.60
2008,11,20,13,26,9.50
2008,11,20,13,27,9.50
2008,11,20,13,28,9.50
2008,11,20,13,29,9.50
2008,11,20,13,30,9.40
2008,11,20,13,31,9.40
2008,11,20,13,32,9.40
2008,11,20,13,33,9.30
2008,11,20,13,34,9.30
2008,11,20,13,35,9.20
2008,11,20,13,36,9.20
2008,11,20,13,37,9.20
2008,11,20,13,38,9.20
2008,11,20,13,39,9.20
2008,11,20,13,40,9.20
2008,11,20,13,41,9.20
2008,11,20,13,42,9.20
2008,11,20,13,43,9.20
2008,11,20,13,44,9.20
2008,11,20,13,45,9.10
2008,11,20,13,46,9.10
2008,11,20,13,47,9.10
2008,11,20,13,48,9.00
2008,11,20,13,49,9.00
2008,11,20,13,50,9.00
2008,11,20,13,51,9.00
2008,11,20,13,52,8.90
2008,11,20,13,53,8.90
2008,11,20,13,54,8.90
2008,11,20,13,55,8.90
2008,11,20,13,56,8.90
2008,11,20,13,57,9.00
2008,11,20,13,58,9.00
2008,11,20,13,59,9.00
2008,11,20,14,00,9.00
2008,11,20,14,01,9.10
2008,11,20,14,02,9.10
2008,11,20,14,03,9.10
2008,11,20,14,04,9.10
2008,11,20,14,05,9.10
2008,11,20,14,06,9.20
2008,11,20,14,07,9.20
2008,11,20,14,08,9.20
2008,11,20,14,09,9.20
2008,11,20,14,10,9.20
2008,11,20,14,11,9.20
2008,11,20,14,12,9.20
2008,11,20,14,13,9.20
2008,11,20,14,14,9.20
2008,11,20,14,15,9.20
2008,11,20,14,16,9.20
2008,11,20,14,17,9.20
2008,11,20,14,18,9.10
2008,11,20,14,19,9.10
2008,11,20,14,20,9.10
2008,11,20,14,21,9.20
2008,11,20,14,22,9.20
2008,11,20,14,23,9.20
2008,11,20,14,24,9.10
2008,11,20,14,25,9.10
2008,11,20,14,26,9.10
2008,11,20,14,27,9.10
2008,11,20,14,28,9.10
2008,11,20,14,29,9.10
2008,11,20,14,30,9.00
2008,11,20,14,31,9.00
2008,11,20,14,32,9.00
2008,11,20,14,33,9.00
2008,11,20,14,34,9.00
2008,11,20,14,35,9.00
2008,11,20,14,36,8.90
2008,11,20,14,37,8.90
2008,11,20,14,38,8.90
2008,11,20,14,39,8.90
2008,11,20,14,40,8.90
2008,11,20,14,41,8.90
2008,11,20,14,42,8.90
2008,11,20,14,43,8.90
2008,11,20,14,44,8.90
2008,11,20,14,45,8.90
2008,11,20,14,46,8.90
2008,11,20,14,47,8.90
2008,11,20,14,48,8.90
2008,11,20,14,49,8.90
2008,11,20,14,50,8.90
2008,11,20,14,51,8.80
2008,11,20,14,52,8.80
2008,11,20,14,53,8.80
2008,11,20,14,54,8.80
2008,11,20,14,55,8.80
2008,11,20,14,56,8.80
2008,11,20,14,57,8.80
2008,11,20,14,58,8.80
2008,11,20,14,59,8.80
2008,11,20,15,00,8.80
2008,11,20,15,01,8.80
2008,11,20,15,02,8.80
2008,11,20,15,03,8.80
2008,11,20,15,04,8.80
2008,11,20,15,05,8.70
2008,11,20,15,06,8.70
2008,11,20,15,07,8.70
2008,11,20,15,08,8.70
2008,11,20,15,09,8.70
2008,11,20,15,10,8.70
2008,11,20,15,11,8.70
2008,11,20,15,12,8.70
2008,11,20,15,13,8.70
2008,11,20,15,14,8.70
2008,11,20,15,15,8.70
2008,11,20,15,16,8.70
2008,11,20,15,17,8.70
2008,11,20,15,18,8.70
2008,11,20,15,19,8.70
2008,11,20,15,20,8.70
2008,11,20,15,21,8.60
2008,11,20,15,22,8.60
2008,11,20,15,23,8.60
2008,11,20,15,24,8.60
2008,11,20,15,25,8.50
2008,11,20,15,26,8.50
2008,11,20,15,27,8.50
2008,11,20,15,28,8.40
2008,11,20,15,29,8.40
2008,11,20,15,30,8.30
2008,11,20,15,31,8.30
2008,11,20,15,32,8.30
2008,11,20,15,33,8.20
2008,11,20,15,34,8.20
2008,11,20,15,35,8.20
2008,11,20,15,36,8.20
2008,11,20,15,37,8.20
2008,11,20,15,38,8.20
2008,11,20,15,39,8.20
2008,11,20,15,40,8.20
2008,11,20,15,41,8.20
2008,11,20,15,42,8.10
2008,11,20,15,43,8.00
2008,11,20,15,44,8.00
2008,11,20,15,45,8.00
2008,11,20,15,46,7.90
2008,11,20,15,47,7.90
2008,11,20,15,48,7.90
2008,11,20,15,49,7.90
2008,11,20,15,50,7.80
2008,11,20,15,51,7.80
2008,11,20,15,52,7.70
2008,11,20,15,53,7.70
2008,11,20,15,54,7.70
2008,11,20,15,55,7.60
2008,11,20,15,56,7.60
2008,11,20,15,57,7.60
2008,11,20,15,58,7.50
2008,11,20,15,59,7.50
2008,11,20,16,00,7.50
2008,11,20,16,01,7.50
2008,11,20,16,02,7.40
2008,11,20,16,03,7.40
2008,11,20,16,04,7.40
2008,11,20,16,05,7.30
2008,11,20,16,06,7.30
2008,11,20,16,07,7.30
2008,11,20,16,08,7.30
2008,11,20,16,09,7.30
2008,11,20,16,10,7.30
2008,11,20,16,11,7.30
2008,11,20,16,12,7.30
2008,11,20,16,13,7.30
2008,11,20,16,14,7.30
2008,11,20,16,15,7.30
2008,11,20,16,16,7.30
2008,11,20,16,17,7.30
2008,11,20,16,18,7.30
2008,11,20,16,19,7.20
2008,11,20,16,20,7.20
2008,11,20,16,21,7.10
2008,11,20,16,22,7.10
2008,11,20,16,23,7.10
2008,11,20,16,24,7.10
2008,11,20,16,25,7.10
2008,11,20,16,26,7.00
2008,11,20,16,27,7.00
2008,11,20,16,28,7.00
2008,11,20,16,29,7.00
2008,11,20,16,30,7.00
2008,11,20,16,31,7.00
2008,11,20,16,32,7.00
2008,11,20,16,33,7.00
2008,11,20,16,34,7.00
2008,11,20,16,35,7.00
2008,11,20,16,36,7.00
2008,11,20,16,37,7.00
2008,11,20,16,38,6.90
2008,11,20,16,39,6.90
2008,11,20,16,40,6.90
2008,11,20,16,41,6.90
2008,11,20,16,42,6.90
2008,11,20,16,43,6.90
2008,11,20,16,44,7.00
2008,11,20,16,45,7.00
2008,11,20,16,46,7.00
2008,11,20,16,47,7.00
2008,11,20,16,48,7.00
2008,11,20,16,49,7.00
2008,11,20,16,50,6.90
2008,11,20,16,51,6.90
2008,11,20,16,52,6.90
2008,11,20,16,53,6.90
2008,11,20,16,54,6.90
2008,11,20,16,55,7.00
2008,11,20,16,56,7.00
2008,11,20,16,57,7.00
2008,11,20,16,58,7.00
2008,11,20,16,59,7.00
2008,11,20,17,00,7.00
2008,11,20,17,01,7.00
2008,11,20,17,02,7.00
2008,11,20,17,03,7.00
2008,11,20,17,04,7.00
2008,11,20,17,05,7.00
2008,11,20,17,06,7.00
2008,11,20,17,07,7.00
2008,11,20,17,08,7.00
2008,11,20,17,09,7.10
2008,11,20,17,10,7.10
2008,11,20,17,11,7.10
2008,11,20,17,12,7.10
2008,11,20,17,13,7.10
2008,11,20,17,14,7.10
2008,11,20,17,15,7.00
2008,11,20,17,16,7.00
2008,11,20,17,17,7.00
2008,11,20,17,18,7.00
2008,11,20,17,19,7.00
2008,11,20,17,20,6.90
2008,11,20,17,21,6.90
2008,11,20,17,22,6.90
2008,11,20,17,23,6.80
2008,11,20,17,24,6.80
2008,11,20,17,25,6.80
2008,11,20,17,26,6.80
2008,11,20,17,27,6.80
2008,11,20,17,28,6.80
2008,11,20,17,29,6.80
2008,11,20,17,30,6.80
2008,11,20,17,31,6.80
2008,11,20,17,32,6.80
2008,11,20,17,33,6.80
2008,11,20,17,34,6.80
2008,11,20,17,35,6.80
2008,11,20,17,36,6.80
2008,11,20,17,37,6.80
2008,11,20,17,38,6.80
2008,11,20,17,39,6.80
2008,11,20,17,40,6.80
2008,11,20,17,41,6.80
2008,11,20,17,42,6.80
2008,11,20,17,43,6.80
2008,11,20,17,44,6.80
2008,11,20,17,45,6.80
2008,11,20,17,46,6.80
2008,11,20,17,47,6.80
2008,11,20,17,48,6.80
2008,11,20,17,49,6.80
2008,11,20,17,50,6.80
2008,11,20,17,51,6.80
2008,11,20,17,52,6.90
2008,11,20,17,53,6.90
2008,11,20,17,54,6.90
2008,11,20,17,55,6.90
2008,11,20,17,56,6.90
2008,11,20,17,57,6.90
2008,11,20,17,58,6.90
2008,11,20,17,59,6.90
2008,11,20,18,00,6.90
2008,11,20,18,01,7.00
2008,11,20,18,02,7.00
2008,11,20,18,03,7.00
2008,11,20,18,04,7.00
2008,11,20,18,05,7.00
2008,11,20,18,06,7.00
2008,11,20,18,07,7.00
2008,11,20,18,08,7.00
2008,11,20,18,09,7.00
2008,11,20,18,10,7.00
2008,11,20,18,11,7.00
2008,11,20,18,12,7.00
2008,11,20,18,13,7.00
2008,11,20,18,14,7.00
2008,11,20,18,15,7.00
2008,11,20,18,16,7.00
2008,11,20,18,17,7.00
2008,11,20,18,18,7.00
2008,11,20,18,19,7.00
2008,11,20,18,20,7.00
2008,11,20,18,21,7.10
2008,11,20,18,22,7.00
2008,11,20,18,23,7.00
2008,11,20,18,24,7.00
2008,11,20,18,25,7.00
2008,11,20,18,26,7.10
2008,11,20,18,27,7.10
2008,11,20,18,28,7.10
2008,11,20,18,29,7.10
2008,11,20,18,30,7.10
2008,11,20,18,31,7.10
2008,11,20,18,32,7.10
2008,11,20,18,33,7.10
2008,11,20,18,34,7.10
2008,11,20,18,35,7.10
2008,11,20,18,36,7.10
2008,11,20,18,37,7.10
2008,11,20,18,38,7.10
2008,11,20,18,39,7.10
2008,11,20,18,40,7.10
2008,11,20,18,41,7.10
2008,11,20,18,42,7.10
2008,11,20,18,43,7.00
2008,11,20,18,44,7.00
2008,11,20,18,45,7.00
2008,11,20,18,46,7.00
2008,11,20,18,47,7.00
2008,11,20,18,48,7.00
2008,11,20,18,49,6.90
2008,11,20,18,50,6.90
2008,11,20,18,51,6.90
2008,11,20,18,52,6.90
2008,11,20,18,53,6.90
2008,11,20,18,54,6.90
2008,11,20,18,55,7.00
2008,11,20,18,56,7.00
2008,11,20,18,57,7.00
2008,11,20,18,58,7.00
2008,11,20,18,59,7.00
2008,11,20,19,00,7.00
2008,11,20,19,01,7.00
2008,11,20,19,02,7.00
2008,11,20,19,03,7.00
2008,11,20,19,04,7.00
2008,11,20,19,05,7.00
2008,11,20,19,06,7.00
2008,11,20,19,07,7.10
2008,11,20,19,08,7.10
2008,11,20,19,09,7.10
2008,11,20,19,10,7.10
2008,11,20,19,11,7.10
2008,11,20,19,12,7.10
2008,11,20,19,13,7.10
2008,11,20,19,14,7.20
2008,11,20,19,15,7.20
2008,11,20,19,16,7.20
2008,11,20,19,17,7.20
2008,11,20,19,18,7.20
2008,11,20,19,19,7.30
2008,11,20,19,20,7.30
2008,11,20,19,21,7.30
2008,11,20,19,22,7.30
2008,11,20,19,23,7.30
2008,11,20,19,24,7.30
2008,11,20,19,25,7.30
2008,11,20,19,26,7.30
2008,11,20,19,27,7.30
2008,11,20,19,28,7.30
2008,11,20,19,29,7.30
2008,11,20,19,30,7.30
2008,11,20,19,31,7.30
2008,11,20,19,32,7.30
2008,11,20,19,33,7.30
2008,11,20,19,34,7.30
2008,11,20,19,35,7.30
2008,11,20,19,36,7.30
2008,11,20,19,37,7.30
2008,11,20,19,38,7.40
2008,11,20,19,39,7.40
2008,11,20,19,40,7.40
2008,11,20,19,41,7.30
2008,11,20,19,42,7.30
2008,11,20,19,43,7.40
2008,11,20,19,44,7.40
2008,11,20,19,45,7.40
2008,11,20,19,46,7.40
2008,11,20,19,47,7.40
2008,11,20,19,48,7.40
2008,11,20,19,49,7.40
2008,11,20,19,50,7.40
2008,11,20,19,51,7.40
2008,11,20,19,52,7.40
2008,11,20,19,53,7.30
2008,11,20,19,54,7.30
2008,11,20,19,55,7.30
2008,11,20,19,56,7.30
2008,11,20,19,57,7.30
2008,11,20,19,58,7.30
2008,11,20,19,59,7.20
2008,11,20,20,00,7.20
2008,11,20,20,01,7.20
2008,11,20,20,02,7.20
2008,11,20,20,03,7.10
2008,11,20,20,04,7.10
2008,11,20,20,05,7.10
2008,11,20,20,06,7.10
2008,11,20,20,07,7.10
2008,11,20,20,08,7.00
2008,11,20,20,09,7.00
2008,11,20,20,10,7.00
2008,11,20,20,11,7.00
2008,11,20,20,12,7.00
2008,11,20,20,13,7.00
2008,11,20,20,14,7.00
2008,11,20,20,15,7.00
2008,11,20,20,16,7.00
2008,11,20,20,17,7.00
2008,11,20,20,18,7.00
2008,11,20,20,19,7.00
2008,11,20,20,20,7.00
2008,11,20,20,21,7.00
2008,11,20,20,22,7.00
2008,11,20,20,23,7.00
2008,11,20,20,24,7.00
2008,11,20,20,25,7.00
2008,11,20,20,26,7.00
2008,11,20,20,27,7.00
2008,11,20,20,28,7.00
2008,11,20,20,29,7.10
2008,11,20,20,30,7.10
2008,11,20,20,31,7.10
2008,11,20,20,32,7.10
2008,11,20,20,33,7.10
2008,11,20,20,34,7.10
2008,11,20,20,35,7.10
2008,11,20,20,36,7.10
2008,11,20,20,37,7.10
2008,11,20,20,38,7.10
2008,11,20,20,39,7.10
2008,11,20,20,40,7.10
2008,11,20,20,41,7.10
2008,11,20,20,42,7.10
2008,11,20,20,43,7.10
2008,11,20,20,44,7.20
2008,11,20,20,45,7.20
2008,11,20,20,46,7.20
2008,11,20,20,47,7.20
2008,11,20,20,48,7.20
2008,11,20,20,49,7.20
2008,11,20,20,50,7.20
2008,11,20,20,51,7.20
2008,11,20,20,52,7.20
2008,11,20,20,53,7.20
2008,11,20,20,54,7.30
2008,11,20,20,55,7.30
2008,11,20,20,56,7.30
2008,11,20,20,57,7.30
2008,11,20,20,58,7.30
2008,11,20,20,59,7.30
2008,11,20,21,00,7.30
2008,11,20,21,01,7.30
2008,11,20,21,02,7.30
2008,11,20,21,03,7.30
2008,11,20,21,04,7.30
2008,11,20,21,05,7.30
2008,11,20,21,06,7.30
2008,11,20,21,07,7.30
2008,11,20,21,08,7.30
2008,11,20,21,09,7.30
2008,11,20,21,10,7.30
2008,11,20,21,11,7.30
2008,11,20,21,12,7.30
2008,11,20,21,13,7.30
2008,11,20,21,14,7.30
2008,11,20,21,15,7.30
2008,11,20,21,16,7.30
2008,11,20,21,17,7.30
2008,11,20,21,18,7.30
2008,11,20,21,19,7.30
2008,11,20,21,20,7.20
2008,11,20,21,21,7.20
2008,11,20,21,22,7.20
2008,11,20,21,23,7.20
2008,11,20,21,24,7.20
2008,11,20,21,25,7.20
2008,11,20,21,26,7.20
2008,11,20,21,27,7.10
2008,11,20,21,28,7.10
2008,11,20,21,29,7.10
2008,11,20,21,30,7.10
2008,11,20,21,31,7.10
2008,11,20,21,32,7.00
2008,11,20,21,33,7.00
2008,11,20,21,34,7.00
2008,11,20,21,35,7.00
2008,11,20,21,36,7.10
2008,11,20,21,37,7.10
2008,11,20,21,38,7.10
2008,11,20,21,39,7.10
2008,11,20,21,40,7.10
2008,11,20,21,41,7.10
2008,11,20,21,42,7.20
2008,11,20,21,43,7.20
2008,11,20,21,44,7.20
2008,11,20,21,45,7.20
2008,11,20,21,46,7.20
2008,11,20,21,47,7.20
2008,11,20,21,48,7.20
2008,11,20,21,49,7.20
2008,11,20,21,50,7.20
2008,11,20,21,51,7.20
2008,11,20,21,52,7.30
2008,11,20,21,53,7.30
2008,11,20,21,54,7.30
2008,11,20,21,55,7.30
2008,11,20,21,56,7.30
2008,11,20,21,57,7.30
2008,11,20,21,58,7.30
2008,11,20,21,59,7.30
2008,11,20,22,00,7.30
2008,11,20,22,01,7.30
2008,11,20,22,02,7.30
2008,11,20,22,03,7.30
2008,11,20,22,04,7.30
2008,11,20,22,05,7.30
2008,11,20,22,06,7.30
2008,11,20,22,07,7.30
2008,11,20,22,08,7.30
2008,11,20,22,09,7.30
2008,11,20,22,10,7.30
2008,11,20,22,11,7.30
2008,11,20,22,12,7.30
2008,11,20,22,13,7.30
2008,11,20,22,14,7.30
2008,11,20,22,15,7.30
2008,11,20,22,16,7.30
2008,11,20,22,17,7.30
2008,11,20,22,18,7.30
2008,11,20,22,19,7.30
2008,11,20,22,20,7.30
2008,11,20,22,21,7.30
2008,11,20,22,22,7.30
2008,11,20,22,23,7.30
2008,11,20,22,24,7.30
2008,11,20,22,25,7.30
2008,11,20,22,26,7.30
2008,11,20,22,27,7.30
2008,11,20,22,28,7.40
2008,11,20,22,29,7.40
2008,11,20,22,30,7.40
2008,11,20,22,31,7.40
2008,11,20,22,32,7.40
2008,11,20,22,33,7.40
2008,11,20,22,34,7.40
2008,11,20,22,35,7.40
2008,11,20,22,36,7.40
2008,11,20,22,37,7.40
2008,11,20,22,38,7.40
2008,11,20,22,39,7.40
2008,11,20,22,40,7.40
2008,11,20,22,41,7.40
2008,11,20,22,42,7.40
2008,11,20,22,43,7.40
2008,11,20,22,44,7.40
2008,11,20,22,45,7.40
2008,11,20,22,46,7.40
2008,11,20,22,47,7.40
2008,11,20,22,48,7.40
2008,11,20,22,49,7.40
2008,11,20,22,50,7.40
2008,11,20,22,51,7.40
2008,11,20,22,52,7.40
2008,11,20,22,53,7.40
2008,11,20,22,54,7.50
2008,11,20,22,55,7.50
2008,11,20,22,56,7.50
2008,11,20,22,57,7.60
2008,11,20,22,58,7.60
2008,11,20,22,59,7.60
2008,11,20,23,00,7.60
2008,11,20,23,01,7.70
2008,11,20,23,02,7.70
2008,11,20,23,03,7.80
2008,11,20,23,04,7.80
2008,11,20,23,05,7.80
2008,11,20,23,06,7.80
2008,11,20,23,07,7.80
2008,11,20,23,08,7.80
2008,11,20,23,09,7.80
2008,11,20,23,10,7.80
2008,11,20,23,11,7.80
2008,11,20,23,12,7.80
2008,11,20,23,13,7.80
2008,11,20,23,14,7.90
2008,11,20,23,15,7.80
2008,11,20,23,16,7.90
2008,11,20,23,17,7.90
2008,11,20,23,18,7.90
2008,11,20,23,19,7.90
2008,11,20,23,20,7.90
2008,11,20,23,21,7.80
2008,11,20,23,22,7.80
2008,11,20,23,23,7.80
2008,11,20,23,24,7.90
2008,11,20,23,25,7.90
2008,11,20,23,26,7.90
2008,11,20,23,27,7.90
2008,11,20,23,28,7.90
2008,11,20,23,29,7.90
2008,11,20,23,30,7.90
2008,11,20,23,31,7.90
2008,11,20,23,32,7.90
2008,11,20,23,33,7.90
2008,11,20,23,34,7.90
2008,11,20,23,35,7.80
2008,11,20,23,36,7.80
2008,11,20,23,37,7.80
2008,11,20,23,38,7.80
2008,11,20,23,39,7.80
2008,11,20,23,40,7.80
2008,11,20,23,41,7.80
2008,11,20,23,42,7.80
2008,11,20,23,43,7.80
2008,11,20,23,44,7.80
2008,11,20,23,45,7.80
2008,11,20,23,46,7.80
2008,11,20,23,47,7.80
2008,11,20,23,48,7.80
2008,11,20,23,49,7.80
2008,11,20,23,50,7.80
2008,11,20,23,51,7.80
2008,11,20,23,52,7.80
2008,11,20,23,53,7.80
2008,11,20,23,54,7.70
2008,11,20,23,55,7.70
2008,11,20,23,56,7.70
2008,11,20,23,57,7.70
2008,11,20,23,58,7.70
2008,11,20,23,59,7.70
